Presure
186 178 181 183 196 204 160 143 116 120 117 117 119 120 138 137 161 150 150 154 156 154 152 148 149 146 126 137 140 136 141 141 139 140 138 135 128 133 141 132 142 145 147 150 154
199 183 179 200 205 212 211 171 152 207 116 125 128 126 180 183 166 212 173 166 163 161 154 155 156 151 146 149 141 108 134 147 138 143 151 150 142 152 130 129 141 147 136 154 159
196 188 180 210 210 208 192 200 197 124 119 117 118 123 196 193 134 203 209 208 207 207 210 214 192 165 153 148 147 145 139 143 140 118 147 129 160 198 142 128 141 140 143 136 152
189 181 178 194 205 195 196 199 204 207 205 208 213 209 205 202 202 200 198 197 196 195 201 203 202 201 213 265 159 152 153 131 111 127 153 156 156 144 129 152 134 138 142 141 147
189 180 180 174 173 174 183 187 190 191 190 185 184 185 194 194 195 196 203 199 195 192 202 196 189 186 197 232 128 182 165 161 149 104 134 130 132 137 145 138 163 140 135 142 150
187 184 181 179 178 174 173 172 171 172 175 179 183 184 181 180 179 176 179 204 207 194 186 178 186 182 243 200 208 191 195 153 132 111 131 150 149 139 142 132 163 145 140 136 151
191 211 182 175 206 204 227 236 238 237 223 205 208 213 216 216 181 172 174 170 168 167 193 181 182 179 186 198 188 180 190 122 143 174 162 126 129 132 137 139 200 137 136 147 133
193 201 202 220 219 215 209 206 208 209 220 230 239 237 200 192 201 208 213 223 245 167 168 189 181 178 193 180 190 189 189 138 190 170 167 143 157 147 148 158 169 143 138 140 135
207 208 207 207 198 204 207 204 205 214 220 216 216 221 231 236 228 182 183 181 213 243 175 163 189 181 169 177 191 182 163 181 128 194 148 161 166 153 141 144 139 149 131 147 138
205 197 205 203 197 192 193 192 194 196 199 208 216 216 214 221 231 238 235 195 197 217 245 173 194 184 169 181 184 184 185 174 197 199 129 134 164 125 134 175 137 129 154 137 136
189 202 186 190 194 187 191 182 189 191 183 185 180 194 198 203 212 229 268 296 182 193 243 188 194 184 173 166 181 181 181 165 207 195 140 175 145 173 182 136 158 147 126 141 147
192 182 179 192 185 186 185 170 165 165 175 169 183 184 179 173 195 204 230 277 255 209 223 222 185 190 178 170 169 173 168 172 167 195 183 167 181 186 184 170 124 146 132 132 133
173 196 189 180 180 172 173 160 174 177 176 167 166 163 166 187 179 190 202 225 273 268 199 228 196 199 186 183 173 168 173 179 143 121 142 181 176 147 156 163 176 141 125 141 149
189 183 179 170 173 165 173 171 159 156 159 173 177 177 175 171 163 181 184 199 218 254 274 227 213 199 195 183 180 181 173 177 190 182 167 198 196 180 165 139 128 150 146 157 142
170 172 167 160 169 167 166 164 164 162 164 160 170 176 162 159 178 170 181 181 195 214 239 209 219 276 204 193 181 179 177 168 173 181 163 151 175 207 145 143 182 156 143 117 147
157 166 164 162 149 154 160 157 161 157 169 153 160 161 172 168 168 157 173 182 189 184 208 232 258 228 264 210 192 183 174 176 179 198 173 164 163 185 156 152 148 151 143 152 146
156 164 169 170 169 173 177 178 182 171 185 173 167 165 165 168 165 169 170 177 165 188 187 201 227 240 279 247 210 187 177 170 172 178 182 168 170 164 180 174 149 179 141 147 144
165 166 161 161 164 161 160 163 165 171 182 190 194 165 157 153 166 168 156 174 173 170 184 190 186 212 238 252 267 201 184 182 182 194 181 174 182 143 166 186 195 183 133 132 141
162 151 143 147 157 150 161 159 166 163 164 170 178 185 187 180 155 160 164 167 169 165 181 168 182 195 199 225 246 257 264 199 174 174 178 169 171 167 163 133 137 147 161 138 144
139 153 154 147 145 148 157 158 158 156 165 170 172 171 173 176 175 174 176 160 165 170 169 183 166 170 188 201 223 239 246 267 199 181 178 169 170 171 175 159 134 141 146 136 155
140 135 129 129 151 133 134 135 180 180 187 178 181 182 182 182 182 181 173 189 166 159 170 171 176 186 182 186 214 226 234 236 287 190 187 180 174 170 171 168 165 141 130 134 193
144 146 137 128 127 152 156 173 182 185 182 173 173 179 180 181 184 182 191 152 160 185 177 174 176 180 172 192 188 219 232 232 234 276 261 203 182 177 179 176 174 180 155 150 130
140 142 137 152 156 149 177 175 172 177 172 181 173 178 186 186 169 198 198 211 166 150 245 186 180 179 193 201 197 219 223 226 226 239 283 251 196 196 213 198 190 191 193 165 215
149 154 151 150 147 159 175 167 164 169 178 174 176 177 188 192 223 226 224 229 204 175 221 225 222 242 235 228 215 217 231 235 223 227 235 268 256 201 199 221 199 204 142 140 199
153 147 145 150 161 180 170 168 162 171 184 188 199 206 249 248 236 227 221 149 189 208 203 194 204 221 235 236 216 226 211 233 222 227 224 259 235 248 211 217 235 207 174 193 201
152 148 154 162 180 171 162 167 178 182 205 242 271 258 229 207 202 205 149 196 197 200 203 198 200 196 217 219 229 233 206 212 224 231 225 225 266 230 242 202 213 223 224 185 127
158 161 169 186 166 177 175 185 185 195 245 209 209 203 204 198 193 203 199 188 205 211 211 213 208 211 196 215 216 229 213 198 223 225 228 222 229 258 229 226 211 227 234 235 149
Wind_Speed
17 18 19 20 22 22 12 10 8 10 10 12 14 14 24 23 41 31 32 37 39 38 36 33 33 33 23 24 23 31 35 23 24 18 2 9 4 3 12 8 14 12 16 18 18
14 16 16 18 18 17 18 14 13 21 14 17 18 18 23 22 23 30 46 45 44 43 36 35 35 33 31 30 29 1 25 28 22 28 30 22 19 26 6 5 19 13 5 22 24
13 13 14 14 14 14 13 17 18 17 16 16 17 20 23 25 24 26 24 23 25 27 30 26 31 38 39 35 33 37 27 28 27 8 18 10 22 18 8 2 16 11 18 10 23
13 13 12 11 12 12 13 14 14 14 16 17 19 22 23 25 26 26 27 28 27 27 27 20 21 22 24 30 42 39 37 26 2 13 24 22 20 11 4 15 6 9 14 17 21
11 13 12 13 13 12 11 13 14 15 17 20 21 22 22 25 26 27 26 29 29 28 24 20 24 25 23 19 8 44 42 40 40 5 17 8 9 7 18 10 18 9 4 12 16
11 12 13 13 13 14 14 15 16 17 18 20 21 22 25 26 28 28 27 25 28 29 27 26 27 26 24 27 30 30 35 37 24 4 16 22 23 17 14 7 10 12 13 11 21
10 7 13 13 9 11 5 3 4 7 12 16 16 17 16 19 28 29 29 30 28 28 29 28 30 27 29 33 34 42 28 7 36 38 39 9 10 11 13 12 8 4 8 18 12
10 8 9 1 1 1 2 4 4 5 4 4 4 9 19 20 19 18 19 18 20 30 29 30 35 31 32 33 32 37 30 14 34 38 36 25 26 17 10 6 14 14 3 6 9
2 1 1 2 3 4 5 6 7 9 9 7 6 5 5 8 14 21 19 18 21 18 31 39 37 36 36 37 42 40 34 34 12 42 23 34 36 22 13 10 7 18 4 14 13
5 1 4 5 6 7 9 10 11 12 14 13 13 12 13 12 9 9 16 22 20 17 23 42 38 39 41 45 47 43 35 32 29 42 22 18 38 14 16 22 6 3 13 4 8
3 5 5 6 8 9 12 11 18 19 15 18 13 22 23 22 21 19 21 11 19 18 20 40 39 41 44 46 46 40 39 32 33 38 35 41 32 41 29 15 21 18 7 6 12
4 5 5 7 11 13 13 9 11 11 13 12 16 14 14 10 21 26 25 14 7 17 18 33 40 44 48 47 44 42 39 40 37 37 39 37 36 36 28 27 10 18 7 4 7
6 8 9 6 10 8 7 10 8 7 5 9 9 11 12 18 13 20 23 23 14 6 19 25 40 46 49 52 50 44 45 44 30 15 25 40 38 29 25 25 22 14 6 10 11
6 8 6 7 7 10 6 4 11 13 12 8 7 8 11 9 8 15 17 19 20 17 3 18 35 43 49 48 50 53 44 41 39 39 32 36 30 26 26 26 19 23 16 15 9
6 6 6 8 7 8 9 10 10 9 11 11 10 9 16 12 14 10 10 11 15 16 11 16 25 16 48 50 50 52 49 35 34 41 34 32 27 38 33 31 13 32 15 7 18
8 5 5 5 13 11 10 12 14 15 11 16 12 11 10 10 11 11 9 11 10 7 11 9 8 23 21 50 52 52 51 49 45 45 41 41 36 27 28 38 33 13 21 22 14
8 7 5 6 7 9 10 12 13 17 17 14 17 16 14 13 10 11 10 13 6 8 4 7 6 6 7 27 52 55 55 47 49 51 51 38 43 34 30 28 42 21 17 14 11
5 7 8 9 9 10 11 11 12 14 17 18 18 16 18 15 18 14 11 14 11 9 9 3 2 6 11 12 15 51 59 59 60 55 54 45 43 29 34 29 27 25 19 15 14
8 10 15 16 14 16 13 11 16 11 14 19 21 22 22 22 18 17 19 17 12 10 12 12 5 9 9 16 18 17 30 61 59 52 58 48 48 41 35 24 26 30 31 17 16
13 15 15 18 19 19 20 16 16 15 15 17 20 24 25 25 28 29 28 21 18 20 19 23 20 14 13 18 22 22 21 29 67 66 62 55 50 51 47 39 25 30 29 19 20
12 19 11 13 25 20 24 21 29 26 27 26 25 25 27 26 29 31 30 33 23 21 30 21 22 28 18 20 24 28 27 29 24 66 70 66 58 54 46 42 45 34 26 22 42
19 15 21 16 17 28 32 35 33 33 32 31 31 30 32 32 35 35 37 29 30 33 35 26 30 29 25 32 25 29 32 29 28 23 35 66 71 65 64 60 54 54 36 32 24
21 24 24 33 35 33 38 37 38 39 37 42 38 42 43 42 34 44 43 43 33 32 30 40 38 37 38 38 32 32 31 33 33 25 21 36 66 66 63 67 67 62 55 39 54
29 34 37 35 38 41 43 42 40 40 47 43 45 44 50 51 50 44 41 38 34 34 30 29 33 34 36 38 38 35 35 35 35 31 27 29 35 63 64 59 64 62 42 39 48
35 32 36 43 45 45 45 46 43 49 55 55 58 59 49 43 40 36 37 33 35 35 34 34 34 34 36 36 38 40 33 35 38 38 31 23 39 40 61 58 53 63 52 53 51
39 41 45 44 46 48 48 52 54 60 60 62 48 44 43 40 39 41 36 43 48 42 39 36 38 43 40 37 35 35 34 36 39 41 34 28 22 42 42 58 57 56 58 55 36
45 49 51 47 49 54 53 56 58 57 61 55 48 44 48 46 47 47 49 49 52 53 48 41 40 39 45 42 35 33 41 38 40 38 37 29 28 32 43 48 55 50 49 56 45
Wind_Direction
244 246 250 253 251 249 257 265 294 281 284 286 278 272 259 258 251 254 252 252 252 252 248 249 249 251 246 248 245 263 272 273 278 298 71 272 240 302 320 5 337 355 16 11 354
249 255 261 256 252 248 245 256 269 244 289 273 267 268 245 246 249 243 252 253 253 252 249 248 249 249 251 247 242 151 264 261 271 279 276 301 285 299 114 336 316 342 6 6 12
257 258 259 264 262 256 257 253 251 276 283 284 285 280 243 243 261 241 240 234 237 239 240 236 245 247 243 242 244 246 249 254 266 252 267 247 286 269 280 128 313 4 5 18 7
253 260 265 274 272 263 259 262 263 255 247 243 245 240 238 238 238 238 239 241 239 236 239 227 230 227 224 211 237 241 242 245 226 234 261 261 235 236 96 300 350 1 1 3 359
260 264 265 266 268 269 269 265 261 255 249 248 247 247 242 243 242 240 235 233 232 234 233 220 223 227 224 194 284 225 235 237 245 85 247 270 253 247 255 295 297 332 33 356 353
265 264 267 275 282 284 281 278 271 267 261 258 254 249 247 244 243 243 242 237 232 231 236 231 223 222 183 184 189 211 224 233 237 343 248 250 245 242 250 263 303 321 347 6 338
268 281 286 289 285 288 328 356 313 289 279 271 266 260 254 254 249 246 242 243 244 245 225 225 224 213 212 186 208 218 207 276 242 233 243 259 227 238 249 270 299 46 30 319 342
284 291 298 253 109 37 359 343 354 336 343 353 321 277 255 252 249 248 242 238 244 237 236 216 224 213 205 224 206 214 210 227 214 234 239 248 244 237 234 281 276 285 30 330 341
270 244 62 74 16 61 77 58 48 51 56 52 46 26 336 287 263 240 235 238 238 228 222 234 215 207 223 222 205 217 228 219 248 217 244 244 247 246 241 241 240 263 19 311 343
153 348 116 108 82 62 61 61 61 62 63 61 64 59 55 36 7 325 269 237 229 228 207 225 211 208 223 215 221 222 221 220 217 213 264 266 242 244 241 228 248 192 279 308 347
359 134 24 53 80 66 82 68 75 74 57 62 42 65 59 53 34 20 360 313 219 222 211 216 209 209 214 233 227 219 220 233 222 212 248 223 256 243 234 253 236 249 236 300 309
124 43 32 98 92 88 91 65 24 18 54 40 50 42 37 13 40 33 23 2 267 214 210 210 215 208 214 224 236 234 230 230 232 212 217 228 222 234 236 235 254 248 245 343 332
33 135 134 94 103 71 75 18 47 49 48 12 22 355 2 36 16 40 30 30 13 268 210 211 214 208 216 217 230 239 232 225 231 256 223 221 227 246 237 234 231 246 228 289 301
130 114 115 44 48 20 43 27 3 360 352 32 32 12 17 5 343 29 34 38 30 32 286 210 215 214 215 222 226 233 240 233 224 226 238 228 230 225 220 247 234 247 257 266 294
68 83 62 35 22 26 4 347 340 339 328 334 334 330 321 331 3 5 25 13 33 31 37 213 216 235 218 220 228 233 242 250 242 236 229 226 219 230 232 239 262 240 248 225 285
39 43 23 8 12 3 347 337 328 332 322 322 318 315 331 325 328 318 349 12 28 7 33 30 15 224 236 222 226 230 241 245 240 226 230 235 236 248 219 234 242 224 235 247 261
22 356 351 355 356 356 355 346 333 323 308 308 313 317 314 322 316 330 348 337 300 8 359 39 12 330 300 233 226 229 233 245 245 241 243 235 246 239 244 219 233 199 234 233 247
315 320 339 345 349 351 347 347 349 345 322 310 303 308 309 308 312 307 290 324 319 274 323 345 247 327 313 280 269 227 230 234 237 231 238 250 239 220 237 245 228 226 216 228 257
306 351 352 343 336 343 333 332 333 337 333 324 313 307 303 298 296 306 305 300 304 264 295 224 265 296 290 293 274 270 246 231 237 237 238 245 246 248 254 232 233 232 220 227 252
352 322 328 330 334 328 318 316 311 304 313 318 311 307 304 301 296 294 293 293 295 303 293 303 232 245 292 297 281 263 264 245 230 234 235 241 244 246 247 237 230 238 234 221 229
341 325 350 341 315 332 328 328 316 312 312 313 310 304 298 296 295 294 292 292 284 287 290 285 289 294 285 282 286 269 257 254 259 231 231 237 238 243 244 243 247 228 232 215 252
308 306 313 330 332 309 306 314 314 314 313 312 307 306 304 301 298 295 292 291 286 289 283 287 286 288 271 289 283 272 262 253 254 263 237 229 237 242 242 244 247 252 231 237 215
309 311 311 305 304 308 311 311 311 313 313 312 309 308 305 301 300 296 293 290 289 283 279 281 280 282 281 280 281 271 266 255 251 263 244 229 232 233 235 238 242 243 243 230 244
301 301 304 306 306 307 310 305 305 311 309 304 302 300 299 299 298 296 293 290 282 277 284 285 282 269 263 261 271 265 265 251 250 249 247 240 229 231 232 232 237 237 228 235 232
293 297 301 303 302 307 305 302 303 307 305 303 302 300 296 296 297 291 288 277 279 281 281 281 281 278 267 257 264 263 259 249 252 248 240 250 230 230 231 229 234 229 223 224 222
297 298 299 298 304 302 300 303 307 305 304 302 298 294 299 297 292 290 283 281 283 278 274 273 272 277 276 270 263 259 258 255 249 253 244 237 239 229 228 230 230 233 232 221 229
295 295 298 303 299 302 301 306 304 303 302 300 305 302 294 290 290 285 281 283 284 282 277 273 272 271 273 271 265 255 258 252 252 252 244 234 240 225 226 227 231 233 235 235 226